Weather in Kamenniki

Russia / Yaroslavl Oblast     58°09′07″N   38°39′40″E
temp.,
°C
wind,
m/s
gust,
m/s
humid.,
%
clouds,
%
prec.,
mm/h
press.,
hPa
HPBL,
m
5 march, fri
fri500:00−11nw239429 0.0 100121
03:00−12w239627 0.0 100221
06:00−9wnw349688 0.3 1003131
09:00−9nw359593 0.8 1004232
12:00−8nnw5789100 0.6 1006463
15:00−9nw498481 0.6 1008348
18:00−12nw33850 0.0 101021
21:00−13wsw34870 0.0 101221
6 march, sat
sat600:00−12w479352 0.0 1013127
03:00−14nw349777 0.1 101459
06:00−17nnw349756 0.0 101536
09:00−17nw339635 0.0 101675
12:00−14w239361 0.0 1016188
15:00−11wsw239151 0.0 1014138
18:00−10sw459288 0.0 101376
21:00−13ssw579272 0.0 101194
7 march, sun
sun700:00−11s6119075 0.0 1006209
03:00−8ssw8159285 0.1 1002574
06:00−6ssw91693100 0.8 996726
09:00−5ssw91494100 1.6 992780
12:00−4ssw81294100 1.6 989802
15:00−6nw91394100 4.3 989888
18:00−7nw61281100 0.7 990444
21:00−11wnw4684100 0.7 99196
8 march, mon
mon800:00−13w4688100 0.0 99186
03:00−12wnw5988100 0.0 992172
06:00−11wnw61194100 0.2 992357
09:00−10nnw71093100 0.8 994657
12:00−10n71088100 0.3 997815
15:00−10nnw81088100 0.5 1001872
18:00−11nnw61091100 0.2 1004455
21:00−13nnw7109399 0.3 1008333
9 march, tue
tue900:00−16nnw599499 0.1 1010211
03:00−20nnw589792 0.1 1013124
06:00−23nnw479847 0.0 1015101
09:00−24nnw469524 0.0 1017180
12:00−22nw569529 0.0 1018269
15:00−20nw579140 0.0 1019323
18:00−21nw449533 0.0 101968
21:00−23n349521 0.0 102122